Showing default

RTU MIREA 1, 61785

Orbit data source: Space-Track

RTU MIREA 1, 61785 is a Commonwealth of Independent States-origin payload satellite in SSO that was launched on Mon, 04 Nov 2024 UTC via a SOYUZ-2-1B launch vehicle from the Vostochny Cosmodrome (VOSTO). Payload-class satellites include a variety of spacecraft equipped with specific instruments for various scientific and technological missions. These include communications satellites like Starlink; space stations such as the ISS; scientific satellites like the Hubble; Earth observation satellites from companies like Planet Labs, Umbra, and HawkEye 360; GPS; miniature CubeSats for education and research; and military/defense satellites.

Loading next visibility...
Identifier
61785, 2024-199BC
Orbit
SSO
Country
Flag of CISCIS
Related business
Manufacturer
MIREA
Mission
Operational Amateur Technology
Bus & Motor
CUBESAT 3U, Unknown motor
Mass
4 kg wet, 4 kg dry
Launch date (UTC)
2024-11-04 (2 years ago)
Launch vehicle
SOYUZ-2-1B
Launch site
Vostochny Cosmodrome (VOSTO)
Object type
Payload
Rocket body
Debris
Shape & HBR
Box, 0.1 m
Radar Cross Section
0.035 m², Small (<0.1 m²)

Expand to show TLE details & history
Last TLE update: 6 hours ago

TLE from 6 hours ago
0 RTU MIREA 1
1 61785U 24199BC  26127.89994550  .00040625  00000-0  56078-3 0  9995
2 61785  97.2997   3.5849 0010868  75.4052 284.8408 15.57009832128192
Epoch: 2026-05-07T21:35Z
TLE epoch observation values (Epoch: 2026-05-07T21:35:55.291Z)
Latitude
0.00001°
Longitude
173.86506°
Altitude
397.581 km
Speed
7.673 km/s
True Right ascension
00h 14m 20s
True Declination
0° 00' 00"
Sunlit
Object was in daylight at epoch
Visualization orbit readout
Latitude
Unknown
Longitude
Unknown
Altitude
Unknown
Speed
Unknown
Apparent Right ascension
Unknown
Apparent Declination
Unknown
Sunlit
N/A
Visualization observer readout
Local Sidereal Time
11:28:27
Azimuth
Unknown
Elevation
Unknown
Doppler factor
Unknown
Orbital elements
Apogee altitude
400.588 km
Perigee altitude
385.87 km
Semi-major axis
6,771.366 km
Eccentricity
0.00109
Inclination
97.2997°
RAAN
3.5849°
Arg. of periapsis
75.4052°
True anomaly
284.72037°
Mean anomaly
284.8408°
Eccentric anomaly
284.78059°
Mean motion
3.89519 °/min
Orbital period
92.42 mins
BSTAR
0.00056078
Loading maneuver chart data...
Computing Atmospheric mass density...
Loading historical data...
Loading historical data...
Loading historical data...
Loading historical data...
Loading historical data...
Loading historical data...
Loading historical data...

Documentation

Showing up to 5 results
|